This is the latest recevied weather packets stored in our database for station/object K4AGR-13. If no packets are shown the sender has not sent any weather packets the latest 10 day(s).
| Time | Temp. | Humidity | Pressure | Rain* | Wind** | Luminosity | Snow |
|---|---|---|---|---|---|---|---|
| 1777688828 | 13.89° C | 95% | 1012.8 hPa | 9.65 mm | - | 0 W/m² | - |
| 1777688524 | 13.89° C | 95% | 1012.9 hPa | 7.87 mm | - | 0 W/m² | - |
| 1777688221 | 13.89° C | 95% | 1013.3 hPa | 4.32 mm | - | 0 W/m² | - |
| 1777687919 | 13.33° C | 94% | 1013.2 hPa | 3.05 mm | - | 0 W/m² | - |
| 1777687615 | 13.33° C | 94% | 1012.6 hPa | 4.32 mm | - | 0 W/m² | - |
| 1777687312 | 13.33° C | 94% | 1012.6 hPa | 7.87 mm | - | 0 W/m² | - |
| 1777687010 | 13.33° C | 94% | 1012.5 hPa | 7.87 mm | - | 0 W/m² | - |
| 1777686706 | 13.33° C | 94% | 1012.6 hPa | 7.11 mm | - | 0 W/m² | - |
| 1777686404 | 13.33° C | 94% | 1012.7 hPa | 7.11 mm | - | 0 W/m² | - |
| 1777686101 | 13.33° C | 94% | 1012.3 hPa | 7.11 mm | - | 0 W/m² | - |
| 1777685797 | 13.89° C | 94% | 1012.4 hPa | 6.1 mm | - | 0 W/m² | - |
| 1777685492 | 13.89° C | 94% | 1012.5 hPa | 6.6 mm | - | 0 W/m² | - |
| 1777685190 | 13.89° C | 94% | 1012.8 hPa | 7.87 mm | - | 0 W/m² | - |
| 1777684888 | 13.89° C | 94% | 1012.9 hPa | 10.67 mm | - | 0 W/m² | - |
| 1777684584 | 13.89° C | 93% | 1012.8 hPa | 10.67 mm | - | 0 W/m² | - |
| 1777684280 | 13.89° C | 93% | 1013 hPa | 13.72 mm | - | 0 W/m² | - |
| 1777683978 | 15° C | 92% | 1013 hPa | 16.76 mm | - | 0 W/m² | - |
| 1777683674 | 15° C | 93% | 1012.7 hPa | 13.21 mm | - | 0 W/m² | - |
| 1777683372 | 15° C | 92% | 1012.9 hPa | 8.89 mm | - | 0 W/m² | - |
| 1777683070 | 15° C | 91% | 1012.6 hPa | 6.6 mm | - | 0 W/m² | - |
| 1777682765 | 15° C | 89% | 1012.6 hPa | 1.78 mm | - | 0 W/m² | - |
| 1777682462 | 15° C | 86% | 1012.5 hPa | 0 mm | - | 0 W/m² | - |
| 1777682161 | 15° C | 84% | 1012.1 hPa | 0 mm | - | 0 W/m² | - |
| 1777681857 | 15° C | 86% | 1011.8 hPa | 0 mm | - | 0 W/m² | - |
| 1777681553 | 15° C | 87% | 1011.9 hPa | 0 mm | - | 0 W/m² | - |
* Rain latest hour (hover to see other rain measurements)
** Current wind speed in m/s (hover to see current wind gust speed)